KMCF Airport (Macdill Afb) Information

FAA: MCF - ICAO: KMCF

KMCF Airport Location

State Florida
County Hillsborough
City Tampa
KMCF Airport is 4 miles south of Tampa, FL.
Latitude 27-50-57.6299N
Longitude 082-31-16.3797W
Elevation 14ft

KMCF Airport METARs

METAR KMCF 121356Z AUTO 12007KT 10SM CLR 28/24 A3004 RMK AO2 SLP175 T02770235 FZRANO $
Altimeter 30.04"
Temperature 27.7°C (81.9°F)
Wind 120° at 7KT
Clouds Skies are clear.
Visibility 10.0mi
Time observed: 2022-08-12T13:56:00Z

KMCF Airport Details

Status Operational
Activation May 1941
Ownership Military - Air Force
Usage Private
Chart MIAMI
ATC on-site Yes
Beacon schedule sunset-sunrise
Beacon color clear green

KMCF Airport Contacts

Owner USAF
Owner address MACDILL AFB, TAMPA, FL 33608
Owner phone N/A
Manager GIL LEAN
Manager address 3001 WEST M. L. KING BLVD, TAMPA, FL 33607
Manager phone 813-554-8213

KMCF Airport (Macdill Afb) Radio Frequencies

KMCF (Airport) Radio Frequencies

UNICOM N/A
Common traffic advisory frequency (CTAF) N/A